sat.trackr.live / text

‹ back to catalog

ONEWEB-0679

NORAD 56715 · 2023-068F

PAYLOAD ACTIVE UNKNOWN

§ Identity

Operator
Country
UK
Launch date
2023-05-20
Launch site
AFWTR
Launch vehicle
Mass (kg)
RCS (m²)

Purposes: comms

External: N2YO · Heavens-Above · Gunter

§ Orbital elements

Epoch: 2026-05-25T05:11:53.343168Z

Period
109.37 min
Inclination
87.9109°
Eccentricity
0.0002554
Mean motion
13.16592787 rev/d
Perigee alt
1,195.8 km
Apogee alt
1,199.7 km
Semi-major
7,575.9 km
B*
1.8370e-4
RAAN
233.3300°
Arg perigee
106.0213°
Mean anomaly
254.1199°
Rev number
14,870

§ Raw data

ONEWEB-06791 56715U 23068F   26145.21658962  .00000083  00000+0  18370-3 0  99922 56715  87.9109 233.3300 0002554 106.0213 254.1199 13.16592787148703

JSON: /api/v1/satellites/56715 · /tle

For live sub-satellite position, see the globe view (requires WebGL).

§ Visibility from observer

Set your observer location to see the next 7 days of passes ≥ 10°. The values pass through the URL so the page stays shareable.

No JS? Fill the form by hand. The geolocation button needs JavaScript.